Broomfield, CO

3:51 PM MST on February 23, 2018 (GMT -0700)
Jeffco

Weather History for KBJC - April, 2013

Change the Weather History Date:

Monday, April 8, 2013

  Actual Average Record
Temperature  
Mean Temperature 45 °F -  
Max Temperature 62 °F 55 °F 77 °F (2017)
Min Temperature 28 °F 33 °F 19 °F (1997)
Degree Days  
Heating Degree Days 20    
Moisture  
Dew Point 27 °F    
Average Humidity 54    
Maximum Humidity 93    
Minimum Humidity 26    
Precipitation  
Precipitation 0.00 in - - ()
Sea Level Pressure  
Sea Level Pressure 29.66 in    
Wind  
Wind Speed 7 mph (NNW)    
Max Wind Speed 32 mph    
Max Gust Speed 51 mph    
Visibility 9 miles    
Events Rain , Snow    
Averages and records for this station are not official NWS values.
T = Trace of Precipitation, MM = Missing Value Source: NWS Daily Summary

Daily Weather History Graph

Daily Weather History Graph

Search for Another Location

Airport or City:

Trip Planner

Search our weather history database for the weather conditions in past years. The results will help you decide how hot, cold, wet, or windy it might be!

Date:

Astronomy

Apr. 08, 2013 Rise Set
Actual Time 6:32 AM MDT 7:32 PM MDT
Civil Twilight 6:05 AM MDT 7:59 PM MDT
Nautical Twilight 5:32 AM MDT 8:32 PM MDT
Astronomical Twilight 4:58 AM MDT 9:06 PM MDT
Moon 5:24 AM MDT (4/8) 6:09 PM MDT (4/8)
Length of Visible Light 13h 54m
Length of Day
12h 59m
Waning Crescent, 3% of the Moon is Illuminated
Apr 8
Waning Crescent
Apr 10
New
Apr 18
First Quarter
Apr 25
Full
May 2
Last Quarter

Hourly Weather History & Observations

Time (MDT) Temp. Windchill Dew Point Humidity Pressure Visibility Wind Dir Wind Speed Gust Speed Precip Events Conditions
12:15 AM 48.2 °F - 26.6 °F 43% 29.74 in 10.0 mi NW 5.8 mph - N/A   Scattered Clouds
12:35 AM 50.0 °F - 24.8 °F 37% 29.74 in 10.0 mi NW 5.8 mph - N/A   Clear
12:54 AM 50.0 °F - 23.0 °F 35% 29.74 in 10.0 mi East 3.5 mph - N/A   Clear
1:14 AM 46.4 °F 43.5 °F 26.6 °F 46% 29.72 in 10.0 mi ENE 5.8 mph - N/A   Clear
1:34 AM 46.4 °F - 26.6 °F 46% 29.72 in 10.0 mi Calm Calm - N/A   Clear
1:55 AM 44.6 °F 42.2 °F 26.6 °F 49% 29.70 in 10.0 mi SSW 4.6 mph - N/A   Clear
2:15 AM 44.6 °F 43.1 °F 26.6 °F 49% 29.71 in 10.0 mi West 3.5 mph - N/A   Clear
2:35 AM 42.8 °F - 28.4 °F 57% 29.70 in 10.0 mi Calm Calm - N/A   Clear
2:55 AM 44.6 °F - 28.4 °F 53% 29.69 in 10.0 mi Calm Calm - N/A   Clear
3:15 AM 42.8 °F - 28.4 °F 57% 29.68 in 10.0 mi Calm Calm - N/A   Clear
3:35 AM 41.0 °F 37.1 °F 28.4 °F 61% 29.67 in 10.0 mi West 5.8 mph - N/A   Clear
3:54 AM 42.8 °F 37.5 °F 26.6 °F 53% 29.68 in 10.0 mi West 9.2 mph - N/A   Clear
4:15 AM 41.0 °F 37.1 °F 26.6 °F 57% 29.67 in 10.0 mi West 5.8 mph - N/A   Clear
4:35 AM 42.8 °F - 26.6 °F 53% 29.66 in 10.0 mi Calm Calm - N/A   Clear
4:55 AM 42.8 °F 38.0 °F 26.6 °F 53% 29.66 in 10.0 mi North 8.1 mph - N/A   Clear
5:15 AM 42.8 °F 39.3 °F 26.6 °F 53% 29.66 in 10.0 mi North 5.8 mph - N/A   Clear
5:35 AM 41.0 °F 39.0 °F 26.6 °F 57% 29.66 in 10.0 mi SSE 3.5 mph - N/A   Clear
5:50 AM 39.2 °F 37.0 °F 26.6 °F 61% 29.65 in 30.0 mi SSE 3.5 mph - N/A   Scattered Clouds
5:55 AM 41.0 °F - 28.4 °F 61% 29.65 in 10.0 mi Calm Calm - N/A   Clear
6:55 AM 44.6 °F - 26.6 °F 49% 29.66 in 50.0 mi Calm Calm - N/A   Mostly Cloudy
7:50 AM 44.6 °F 41.4 °F 26.6 °F 49% 29.65 in 50.0 mi NW 5.8 mph - N/A   Mostly Cloudy
8:50 AM 46.4 °F 41.9 °F 26.6 °F 46% 29.65 in 50.0 mi NNW 9.2 mph - N/A   Mostly Cloudy
9:55 AM 50.0 °F - 28.4 °F 43% 29.63 in 50.0 mi North 8.1 mph - N/A   Mostly Cloudy
10:48 AM 53.6 °F - 26.6 °F 35% 29.62 in 35.0 mi North 9.2 mph - N/A   Overcast
11:49 AM 57.2 °F - 28.4 °F 33% 29.59 in 25.0 mi North 5.8 mph - N/A   Overcast
12:51 PM 59.0 °F - 28.4 °F 31% 29.55 in 25.0 mi NNW 11.5 mph - N/A   Mostly Cloudy
1:51 PM 60.8 °F - 28.4 °F 29% 29.50 in 25.0 mi North 11.5 mph - N/A   Mostly Cloudy
2:48 PM 59.0 °F - 26.6 °F 29% 29.46 in 25.0 mi NW 18.4 mph 25.3 mph N/A   Mostly Cloudy
3:50 PM 62.6 °F - 26.6 °F 26% 29.42 in 25.0 mi NNW 19.6 mph 23.0 mph N/A   Mostly Cloudy
4:52 PM 59.0 °F - 24.8 °F 27% 29.45 in 25.0 mi NNW 27.6 mph 35.7 mph N/A   Mostly Cloudy
5:53 PM 44.6 °F 34.4 °F 32.0 °F 61% 29.54 in 20.0 mi NNW 32.2 mph 50.6 mph N/A   Overcast
6:48 PM 41.0 °F 29.5 °F 30.2 °F 65% 29.59 in 15.0 mi NNW 32.2 mph 40.3 mph N/A   Overcast
7:54 PM 41.0 °F 31.1 °F 30.2 °F 65% 29.64 in 2.0 mi NNW 23.0 mph 26.5 mph N/A Rain Light Rain
8:04 PM 35.6 °F 23.7 °F 30.2 °F 81% 29.66 in 6.0 mi NNW 24.2 mph 29.9 mph N/A Rain , Snow Light Rain Showers
8:53 PM 32.0 °F 20.5 °F 28.4 °F 87% 29.70 in 6.0 mi North 18.4 mph 29.9 mph N/A Snow Light Snow
9:53 PM 32.0 °F 22.1 °F 26.6 °F 80% 29.78 in 5.0 mi North 13.8 mph 24.2 mph N/A Snow Light Snow
11:15 PM 28.4 °F 17.0 °F 26.6 °F 93% 29.81 in 1.0 mi NE 15.0 mph 21.9 mph N/A Snow Light Snow
11:35 PM 28.4 °F 16.6 °F 26.6 °F 93% 29.79 in 2.0 mi NNE 16.1 mph 23.0 mph N/A Snow Light Snow
11:55 PM 28.4 °F 19.1 °F 24.8 °F 86% 29.81 in 5.0 mi NNE 10.4 mph 19.6 mph N/A Snow Light Snow